Погода в Злоказово

Россия / Челябинская область     55°27′52″N   59°27′21″E
темп.,
°C
ветер,
м/с
пор.,
м/с
влажн.,
%
обл.,
%
осадки,
мм/ч
давл.,
гПа
погр.,
м
21 июня, пн
пн2123:00+12ссз411480 0.0 1018747
02:00+7сз11680 0.0 102011
05:00+5сз11745 0.0 102310
08:00+12с25480 0.0 1023636
11:00+16ссз35334 0.0 10221304
14:00+19сз34275 0.0 10221713
17:00+20зсз34313 0.0 10221591
20:00+16з11613 0.0 102116
22 июня, вт
вт2223:00+12ююз1165100 0.0 102211
02:00+11ююз116999 0.0 102111
05:00+10юз228380 0.0 102129
08:00+16зюз247112 0.0 1020373
11:00+21з466321 0.0 1019754
14:00+25зсз695680 0.4 10181903
17:00+24сз5105496 0.7 10171149
20:00+24зсз4106218 0.0 1016654
23 июня, ср
ср2323:00+18з2294100 1.1 101730
02:00+15зюз22973 0.1 101727
05:00+14с119612 0.1 101814
08:00+16всв2291100 0.1 1019415
11:00+16всв3482100 0.5 1020500
14:00+13всв1497100 1.6 1020269
17:00+13в129877 4.4 1021132
20:00+16ююв24770 0.0 1020289
24 июня, чт
чт2423:00+10вюв11940 0.0 102111
02:00+9вюв11940 0.0 102110
05:00+8вюв11935 0.0 102110
08:00+15юв01615 0.0 1021242
11:00+21ююз0136100 0.0 10201394
14:00+23сз123119 0.0 10181581
17:00+23сз333448 0.0 10181527
20:00+19зсз11657 0.0 101823
25 июня, пт
пт2523:00+13ююз11735 0.0 101711
02:00+12ююз22785 0.0 101623
05:00+11ююз227363 0.0 101529
08:00+18зюз38685 0.0 1013425
11:00+24з58617 0.3 10121066
14:00+27зсз565124 0.1 10101682
17:00+28сз464990 0.3 10102042
20:00+20зсз389298 1.6 1010191